Location: *
(51.8167°N, 12.5000°E)
Time: 17:18:07
(UTC+00:00)

Cosmos 2181 Rocket - Pass Details

Date: 16 September 2019
Orbit: 953 x 1014 km, 82.9° (Epoch: 14 October)

Event Time Altitude Azimuth Distance (km) Brightness Sun altitude
Exits shadow 19:16:38 - 178° (S) 3,510 6.6 -17.5°
Reaches altitude 10° 19:18:46 10° 176° (S) 2,713 6.0 -17.8°
Maximum altitude 19:24:55 68° 95° (E) 1,056 3.9 -18.7°
Drops below altitude 10° 19:31:14 10° 14° (NNE) 2,774 6.6 -19.5°
Sets 19:33:48 0° 12° (NNE) 3,735 7.3 -19.8°
